Regional Weather Roundup
Issued by NWS

Home | Current Version | Previous Version | Text Only | Print | Product List | Glossary Off
Versions: 1 2 3 4 5 6 7 8 9 10 11 12 13 14 15 16 17 18 19 20 21 22 23 24 25 26 27 28 29 30 31 32 33 34 35 36 37 38 39 40 41 42 43 44 45 46 47 48 49 50

000
ASUS45 KTFX 301410
RWRMT
MONTANA REGIONAL WEATHER ROUNDUP
NATIONAL WEATHER SERVICE GREAT FALLS MT
800 AM MDT SUN APR 30 2017

NOTE: "FAIR" INDICATES FEW OR NO CLOUDS BELOW 12000 FEET WITH NO
SIGNIFICANT WEATHER AND/OR OBSTRUCTIONS TO VISIBILITY.

MTZ001>007-043-301500-
WEST OF THE DIVIDE

CITY           SKY/WX    TMP DP  RH WIND       PRES   REMARKS
KALISPELL      LGT RAIN  42  38  85 S12       29.99S
MISSOULA       LGT RAIN  48  37  65 N3        30.03S
BUTTE          CLOUDY    43  23  45 CALM      30.04S
MULLAN PASS    SNOW      31  31 100 W8        29.97F VSB 1/4 WCI  23
ANACONDA         N/A     45  25  45 SE6       30.02S
DEER LODGE       N/A     45  28  53 S6        30.04S
EUREKA           N/A     45  34  65 SE9       29.96S
HAMILTON         N/A     46  32  57 S9        30.04S
LIBBY            N/A     45  37  76 SE8       29.96F
$$

MTZ008-052>055-301500-
SOUTHWEST MONTANA

CITY           SKY/WX    TMP DP  RH WIND       PRES   REMARKS
BOZEMAN        CLOUDY    41  34  76 CALM      30.04F
DILLON         CLOUDY    42  25  50 SW16      30.05R
W YELLOWSTONE  CLOUDY    34  19  55 SW6       30.12S WCI  29
ENNIS          PTSUNNY   43  30  61 S10       30.10F
THREE FORKS      N/A     40  40 100 CALM      30.02S
$$

MTZ009-010-012-014-046-048-049-054-301500-
EAST SLOPES AND CENTRAL MONTANA

CITY           SKY/WX    TMP DP  RH WIND       PRES   REMARKS
CUT BANK       CLOUDY    43  31  62 W33G41    29.85F
GREAT FALLS    CLOUDY    47  31  53 SW16      29.93S
MALMSTROM AFB  CLOUDY    48  33  55 SW16      29.94R
HELENA         CLOUDY    46  32  58 S3        29.99S
AUGUSTA        PTSUNNY   41  32  71 SW3       29.93R
BOWMANS CRNR     N/A     42  30  63 SW7       29.92F
CHOTEAU          N/A     45  30  57 SW10      29.94R
FAIRFIELD      PTSUNNY   45  29  54 SW13      29.92R
POWER          PTSUNNY   45  33  63 SW9       29.91S
RAYNESFORD     CLOUDY    46  32  58 SW14G20   29.94R
ULM            PTSUNNY   47  32  55 SW13      29.94S
$$

MTZ011-013-016-021-045-047-050-051-301500-
NORTH CENTRAL MONTANA

CITY           SKY/WX    TMP DP  RH WIND       PRES   REMARKS
HAVRE          CLOUDY    44  37  76 SW13      29.90S
LEWISTOWN      CLOUDY    45  32  60 SW14      29.95S
CHINOOK          N/A     41  37  87 CALM      29.90S
DENTON         PTSUNNY   46  33  62 W28       29.90S
FORT BENTON      N/A    N/A N/A N/A MISG      29.93R
GEYSER         PTSUNNY   46  32  58 W25G31    29.91F
GRASS RANGE      N/A     45  34  66 W12       29.92S
JUDITH GAP     CLOUDY    42  32  67 W13G24    29.96S
STANFORD         N/A     45  32  60 W15G22    29.94R
WINIFRED         N/A     47  31  53 SW14      29.92S
$$

MTZ017>020-022>027-061-062-301500-
NORTHEAST MONTANA

CITY           SKY/WX    TMP DP  RH WIND       PRES   REMARKS
GLASGOW        MOSUNNY   46  30  53 SE17      29.92F
JORDAN           N/A     46  26  45 SW10      29.95F
SIDNEY         SUNNY     43  30  60 S9        30.02F
WOLF POINT     SUNNY     45  27  49 CALM      29.98F
PLENTYWOOD       N/A     43  30  61 E10       29.98S
POPLAR           N/A     46  25  42 SW7       29.99S
SCOBEY           N/A     46  27  48 SE9       29.93F
$$

MTZ028>42-056>058-301500-
SOUTHCENTRAL AND SOUTHEAST MONTANA

CITY           SKY/WX    TMP DP  RH WIND       PRES   REMARKS
BILLINGS       PTSUNNY   45  29  53 SW18      29.98S
LIVINGSTON     CLOUDY    45  27  49 W18       30.02F
MILES CITY     SUNNY     41  25  53 SE12      30.00F
BIG TIMBER     SUNNY     46  28  49 W18       30.01S
LAUREL           N/A     45  25  45 SW15      29.98F
ROUNDUP          N/A     41  29  62 S13       29.90S
$$

REGIONAL REPORTS...DAKOTAS

CITY           SKY/WX    TMP DP  RH WIND       PRES   REMARKS
WILLISTON      SUNNY     47  28  47 SW7       30.02F
MINOT          SUNNY     51  25  36 S5        30.03F
DICKINSON      SUNNY     47  25  42 W7        30.03F
BEACH            N/A     46  25  42 S7        30.06F
TIOGA            N/A     48  27  43 SW15      30.03F
WATFORD CITY     N/A     46  30  53 CALM      30.02F
BISMARCK       SUNNY     43  30  60 CALM      30.09F
GRAND FORKS    PTSUNNY   48  32  53 S8        30.13F
FARGO          SUNNY     48  24  39 E8        30.12S
BUFFALO SD       N/A     41  27  57 W5        29.98F
RAPID CITY     SUNNY     45  22  40 N14       30.05F
$$

REGIONAL REPORTS...WYOMING/IDAHO/WASHINGTON

CITY           SKY/WX    TMP DP  RH WIND       PRES   REMARKS
GILLETTE       SUNNY     33  25  72 S8        30.03F WCI  26
SHERIDAN       SUNNY     33  26  75 CALM      30.02S
BUFFALO WY     SUNNY     38  19  46 W6        30.02F
CODY           SUNNY     38  30  73 CALM      30.06S
YELLOWSTONE LA   N/A     24  21  88 CALM      30.15R
IDAHO FALLS    MOSUNNY   42  30  62 SW14      30.12F
SALMON         CLOUDY    43  34  70 N3        30.06S
BOISE          CLOUDY    46  33  60 CALM      30.13R
SPOKANE        MOSUNNY   46  39  76 SW17      30.01R
$$

REGIONAL REPORTS...ALBERTA

CITY           SKY/WX    TMP DP  RH WIND       PRES   REMARKS
EDMONTON       CLOUDY    41  36  81 E3        29.77S
CALGARY        PTSUNNY   45  27  49 W8        29.76S
LETHBRIDGE     PTSUNNY   46  34  61 SW20G26   29.81F
MEDICINE HAT   CLOUDY    48  37  66 S9        29.81S
MILK RIVER       N/A     45  34  65 SW13G20     N/A
$$

REGIONAL REPORTS...SASKATCHEWAN

CITY           SKY/WX    TMP DP  RH WIND       PRES   REMARKS
SWIFT CURRENT  PTSUNNY   43  37  81 SW12G21   29.84S
REGINA         CLOUDY    43  37  81 SE5       29.92F
SASKATOON      PTSUNNY   45  37  76 E9        29.89F
CYPRESS HILLS    N/A     39  30  70 SW6         N/A
VAL MARIE        N/A     41  36  81 S5          N/A
ASSINIBOIA       N/A     39  36  87 NE3         N/A
$$



USA.gov is the U.S. government's official web portal to all federal, state and local government web resources and services.